Wetterdaten: Freitag, 30.08.2013
Datum Zeit Temp. I. Temp. A. Boden 5 cm Feuchte A. Sonne Luftdruck Regen Wind Sonnenschein
30.08.2013 00:00 22,4 C 15,4 C 13,0 C 83 % 0 % 1016 hPa 0,0 l/m 0,0 km/h (0 Bft) 0 min
30.08.2013 00:03 22,4 C 15,3 C 13,1 C 83 % 0 % 1016 hPa 0,0 l/m 0,0 km/h (0 Bft) 0 min
30.08.2013 00:06 22,4 C 15,3 C 13,1 C 83 % 0 % 1016 hPa 0,0 l/m 0,0 km/h (0 Bft) 0 min
30.08.2013 00:09 22,4 C 15,3 C 13,0 C 84 % 0 % 1016 hPa 0,0 l/m 0,0 km/h (0 Bft) 0 min
30.08.2013 00:12 22,4 C 15,3 C 12,8 C 84 % 0 % 1016 hPa 0,0 l/m 0,0 km/h (0 Bft) 0 min
30.08.2013 00:15 22,4 C 15,2 C 12,8 C 84 % 0 % 1016 hPa 0,0 l/m 0,0 km/h (0 Bft) 0 min
30.08.2013 00:18 22,4 C 15,2 C 12,7 C 84 % 0 % 1016 hPa 0,0 l/m 0,0 km/h (0 Bft) 0 min
30.08.2013 00:21 22,4 C 15,2 C 12,7 C 84 % 0 % 1016 hPa 0,0 l/m 0,0 km/h (0 Bft) 0 min
30.08.2013 00:24 22,4 C 15,2 C 12,9 C 84 % 0 % 1016 hPa 0,0 l/m 0,0 km/h (0 Bft) 0 min
30.08.2013 00:27 22,4 C 15,1 C 13,2 C 84 % 0 % 1016 hPa 0,0 l/m 0,0 km/h (0 Bft) 0 min
30.08.2013 00:30 22,4 C 15,0 C 13,0 C 85 % 0 % 1016 hPa 0,0 l/m 0,0 km/h (0 Bft) 0 min
30.08.2013 00:33 22,4 C 14,9 C 13,2 C 85 % 0 % 1016 hPa 0,0 l/m 0,0 km/h (0 Bft) 0 min
30.08.2013 00:36 22,4 C 14,8 C 13,1 C 85 % 0 % 1016 hPa 0,0 l/m 0,0 km/h (0 Bft) 0 min
30.08.2013 00:39 22,4 C 14,7 C 13,0 C 85 % 0 % 1016 hPa 0,0 l/m 0,0 km/h (0 Bft) 0 min
30.08.2013 00:42 22,4 C 14,8 C 12,7 C 85 % 0 % 1016 hPa 0,0 l/m 0,0 km/h (0 Bft) 0 min
30.08.2013 00:45 22,4 C 14,7 C 12,5 C 85 % 0 % 1016 hPa 0,0 l/m 0,0 km/h (0 Bft) 0 min
30.08.2013 00:48 22,4 C 14,7 C 12,5 C 85 % 0 % 1016 hPa 0,0 l/m 0,0 km/h (0 Bft) 0 min
30.08.2013 00:51 22,4 C 14,7 C 12,5 C 86 % 0 % 1016 hPa 0,0 l/m 0,3 km/h (0 Bft) 0 min
30.08.2013 00:54 22,4 C 14,6 C 12,5 C 86 % 0 % 1016 hPa 0,0 l/m 0,4 km/h (0 Bft) 0 min
30.08.2013 00:57 22,4 C 14,4 C 12,4 C 87 % 0 % 1016 hPa 0,0 l/m 0,0 km/h (0 Bft) 0 min
30.08.2013 01:00 22,4 C 14,4 C 12,3 C 87 % 0 % 1016 hPa 0,0 l/m 0,0 km/h (0 Bft) 0 min
30.08.2013 01:03 22,4 C 14,4 C 12,3 C 87 % 0 % 1016 hPa 0,0 l/m 0,0 km/h (0 Bft) 0 min
30.08.2013 01:06 22,4 C 14,3 C 12,6 C 87 % 0 % 1016 hPa 0,0 l/m 0,0 km/h (0 Bft) 0 min
30.08.2013 01:09 22,4 C 14,0 C 12,5 C 86 % 0 % 1016 hPa 0,0 l/m 3,3 km/h (1 Bft) 0 min
30.08.2013 01:12 22,4 C 13,9 C 12,5 C 86 % 0 % 1016 hPa 0,0 l/m 0,0 km/h (0 Bft) 0 min
30.08.2013 01:15 22,4 C 13,9 C 12,0 C 86 % 0 % 1016 hPa 0,0 l/m 0,0 km/h (0 Bft) 0 min
30.08.2013 01:18 22,4 C 13,8 C 12,2 C 87 % 0 % 1016 hPa 0,0 l/m 0,0 km/h (0 Bft) 0 min
30.08.2013 01:21 22,4 C 13,8 C 12,3 C 87 % 0 % 1016 hPa 0,0 l/m 0,0 km/h (0 Bft) 0 min
30.08.2013 01:24 22,4 C 13,8 C 11,8 C 88 % 0 % 1016 hPa 0,0 l/m 0,0 km/h (0 Bft) 0 min
30.08.2013 01:27 22,4 C 13,8 C 11,7 C 88 % 0 % 1016 hPa 0,0 l/m 0,0 km/h (0 Bft) 0 min
30.08.2013 01:30 22,4 C 13,8 C 11,8 C 88 % 0 % 1016 hPa 0,0 l/m 0,0 km/h (0 Bft) 0 min
30.08.2013 01:33 22,4 C 13,8 C 11,9 C 88 % 0 % 1016 hPa 0,0 l/m 0,0 km/h (0 Bft) 0 min
30.08.2013 01:36 22,4 C 13,8 C 12,1 C 88 % 0 % 1016 hPa 0,0 l/m 1,8 km/h (1 Bft) 0 min
30.08.2013 01:39 22,4 C 13,7 C 12,1 C 88 % 0 % 1016 hPa 0,0 l/m 2,1 km/h (1 Bft) 0 min
30.08.2013 01:42 22,4 C 13,6 C 11,9 C 88 % 0 % 1016 hPa 0,0 l/m 0,0 km/h (0 Bft) 0 min
30.08.2013 01:45 22,4 C 13,6 C 11,8 C 88 % 0 % 1016 hPa 0,0 l/m 0,0 km/h (0 Bft) 0 min
30.08.2013 01:48 22,4 C 13,6 C 11,8 C 88 % 0 % 1016 hPa 0,0 l/m 0,0 km/h (0 Bft) 0 min
30.08.2013 01:51 22,4 C 13,7 C 11,7 C 89 % 0 % 1016 hPa 0,0 l/m 0,0 km/h (0 Bft) 0 min
30.08.2013 01:54 22,4 C 13,7 C 11,6 C 89 % 0 % 1016 hPa 0,0 l/m 0,0 km/h (0 Bft) 0 min
30.08.2013 01:57 22,3 C 13,7 C 11,9 C 88 % 0 % 1016 hPa 0,0 l/m 0,0 km/h (0 Bft) 0 min
30.08.2013 02:00 22,3 C 13,7 C 11,9 C 88 % 0 % 1016 hPa 0,0 l/m 0,0 km/h (0 Bft) 0 min
30.08.2013 02:03 22,3 C 13,7 C 11,9 C 88 % 0 % 1016 hPa 0,0 l/m 0,0 km/h (0 Bft) 0 min
30.08.2013 02:06 22,4 C 13,5 C 11,7 C 88 % 0 % 1016 hPa 0,0 l/m 0,0 km/h (0 Bft) 0 min
30.08.2013 02:09 22,3 C 13,5 C 11,6 C 88 % 0 % 1016 hPa 0,0 l/m 0,0 km/h (0 Bft) 0 min
30.08.2013 02:12 22,4 C 13,6 C 11,6 C 88 % 0 % 1016 hPa 0,0 l/m 0,0 km/h (0 Bft) 0 min
30.08.2013 02:15 22,3 C 13,6 C 11,6 C 88 % 0 % 1016 hPa 0,0 l/m 0,0 km/h (0 Bft) 0 min
30.08.2013 02:18 22,4 C 13,6 C 11,6 C 88 % 0 % 1016 hPa 0,0 l/m 0,0 km/h (0 Bft) 0 min
30.08.2013 02:21 22,3 C 13,6 C 11,4 C 88 % 0 % 1016 hPa 0,0 l/m 0,0 km/h (0 Bft) 0 min
30.08.2013 02:24 22,3 C 13,6 C 11,7 C 88 % 0 % 1016 hPa 0,0 l/m 0,0 km/h (0 Bft) 0 min
30.08.2013 02:27 22,3 C 13,6 C 11,7 C 88 % 0 % 1016 hPa 0,0 l/m 0,0 km/h (0 Bft) 0 min
30.08.2013 02:30 22,3 C 13,5 C 11,4 C 88 % 0 % 1016 hPa 0,0 l/m 0,0 km/h (0 Bft) 0 min
30.08.2013 02:33 22,3 C 13,5 C 11,6 C 88 % 0 % 1016 hPa 0,0 l/m 0,0 km/h (0 Bft) 0 min
30.08.2013 02:36 22,3 C 13,5 C 12,0 C 89 % 0 % 1016 hPa 0,0 l/m 0,0 km/h (0 Bft) 0 min
30.08.2013 02:39 22,4 C 13,5 C 11,6 C 89 % 0 % 1016 hPa 0,0 l/m 0,0 km/h (0 Bft) 0 min
30.08.2013 02:42 22,3 C 13,5 C 11,7 C 89 % 0 % 1016 hPa 0,0 l/m 0,0 km/h (0 Bft) 0 min
30.08.2013 02:45 22,3 C 13,6 C 11,4 C 89 % 0 % 1016 hPa 0,0 l/m 0,0 km/h (0 Bft) 0 min
30.08.2013 02:48 22,3 C 13,6 C 11,4 C 89 % 0 % 1016 hPa 0,0 l/m 0,0 km/h (0 Bft) 0 min
30.08.2013 02:51 22,3 C 13,5 C 11,4 C 89 % 0 % 1016 hPa 0,0 l/m 0,0 km/h (0 Bft) 0 min
30.08.2013 02:54 22,3 C 13,6 C 11,3 C 89 % 0 % 1016 hPa 0,0 l/m 0,0 km/h (0 Bft) 0 min
30.08.2013 02:57 22,3 C 13,6 C 11,3 C 88 % 0 % 1016 hPa 0,0 l/m 0,0 km/h (0 Bft) 0 min
30.08.2013 03:00 22,3 C 13,5 C 11,5 C 88 % 0 % 1016 hPa 0,0 l/m 0,0 km/h (0 Bft) 0 min
30.08.2013 03:03 22,3 C 13,5 C 11,5 C 88 % 0 % 1016 hPa 0,0 l/m 0,0 km/h (0 Bft) 0 min
30.08.2013 03:06 22,3 C 13,4 C 11,2 C 89 % 0 % 1016 hPa 0,0 l/m 0,0 km/h (0 Bft) 0 min
30.08.2013 03:09 22,3 C 13,4 C 11,2 C 89 % 0 % 1016 hPa 0,0 l/m 0,0 km/h (0 Bft) 0 min
30.08.2013 03:12 22,3 C 13,4 C 11,2 C 89 % 0 % 1016 hPa 0,0 l/m 0,0 km/h (0 Bft) 0 min
30.08.2013 03:15 22,3 C 13,4 C 11,3 C 89 % 0 % 1016 hPa 0,0 l/m 0,0 km/h (0 Bft) 0 min
30.08.2013 03:18 22,3 C 13,4 C 11,3 C 89 % 0 % 1016 hPa 0,0 l/m 0,0 km/h (0 Bft) 0 min
30.08.2013 03:21 22,3 C 13,4 C 11,3 C 89 % 0 % 1016 hPa 0,0 l/m 0,0 km/h (0 Bft) 0 min
30.08.2013 03:24 22,3 C 13,4 C 11,1 C 89 % 0 % 1016 hPa 0,0 l/m 0,0 km/h (0 Bft) 0 min
30.08.2013 03:27 22,3 C 13,4 C 11,4 C 89 % 0 % 1016 hPa 0,0 l/m 0,0 km/h (0 Bft) 0 min
30.08.2013 03:30 22,3 C 13,3 C 11,5 C 89 % 0 % 1016 hPa 0,0 l/m 0,0 km/h (0 Bft) 0 min
30.08.2013 03:33 22,3 C 13,3 C 11,5 C 89 % 0 % 1016 hPa 0,0 l/m 0,0 km/h (0 Bft) 0 min
30.08.2013 03:36 22,3 C 13,2 C 11,4 C 89 % 0 % 1016 hPa 0,0 l/m 0,0 km/h (0 Bft) 0 min
30.08.2013 03:39 22,3 C 13,1 C 11,5 C 89 % 0 % 1016 hPa 0,0 l/m 0,0 km/h (0 Bft) 0 min
30.08.2013 03:42 22,3 C 13,1 C 11,3 C 89 % 0 % 1016 hPa 0,0 l/m 0,0 km/h (0 Bft) 0 min
30.08.2013 03:45 22,3 C 13,0 C 11,4 C 89 % 0 % 1016 hPa 0,0 l/m 0,0 km/h (0 Bft) 0 min
30.08.2013 03:48 22,3 C 13,0 C 11,4 C 89 % 0 % 1016 hPa 0,0 l/m 0,0 km/h (0 Bft) 0 min
30.08.2013 03:51 22,3 C 13,0 C 11,0 C 89 % 0 % 1016 hPa 0,0 l/m 0,0 km/h (0 Bft) 0 min
30.08.2013 03:54 22,3 C 12,9 C 11,3 C 89 % 0 % 1016 hPa 0,0 l/m 0,0 km/h (0 Bft) 0 min
30.08.2013 03:57 22,3 C 12,9 C 11,1 C 89 % 0 % 1016 hPa 0,0 l/m 0,0 km/h (0 Bft) 0 min
30.08.2013 04:00 22,3 C 12,9 C 11,1 C 89 % 0 % 1016 hPa 0,0 l/m 0,0 km/h (0 Bft) 0 min
30.08.2013 04:03 22,3 C 12,9 C 10,9 C 89 % 0 % 1016 hPa 0,0 l/m 0,0 km/h (0 Bft) 0 min
30.08.2013 04:06 22,3 C 12,8 C 10,9 C 89 % 0 % 1016 hPa 0,0 l/m 0,0 km/h (0 Bft) 0 min
30.08.2013 04:09 22,3 C 12,8 C 10,7 C 89 % 0 % 1016 hPa 0,0 l/m 0,0 km/h (0 Bft) 0 min
30.08.2013 04:12 22,3 C 12,7 C 10,5 C 89 % 0 % 1016 hPa 0,0 l/m 0,0 km/h (0 Bft) 0 min
30.08.2013 04:15 22,3 C 12,7 C 10,6 C 89 % 0 % 1016 hPa 0,0 l/m 0,0 km/h (0 Bft) 0 min
30.08.2013 04:18 22,3 C 12,7 C 10,4 C 89 % 0 % 1016 hPa 0,0 l/m 0,0 km/h (0 Bft) 0 min
30.08.2013 04:21 22,3 C 12,7 C 10,6 C 89 % 0 % 1016 hPa 0,0 l/m 0,0 km/h (0 Bft) 0 min
30.08.2013 04:24 22,3 C 12,7 C 10,8 C 89 % 0 % 1016 hPa 0,0 l/m 0,0 km/h (0 Bft) 0 min
30.08.2013 04:27 22,3 C 12,6 C 10,5 C 89 % 0 % 1016 hPa 0,0 l/m 0,0 km/h (0 Bft) 0 min
30.08.2013 04:30 22,3 C 12,6 C 10,8 C 89 % 0 % 1016 hPa 0,0 l/m 0,0 km/h (0 Bft) 0 min
30.08.2013 04:33 22,3 C 12,6 C 10,4 C 89 % 0 % 1016 hPa 0,0 l/m 0,0 km/h (0 Bft) 0 min
30.08.2013 04:36 22,3 C 12,6 C 10,1 C 89 % 0 % 1016 hPa 0,0 l/m 0,0 km/h (0 Bft) 0 min
30.08.2013 04:39 22,3 C 12,6 C 10,5 C 89 % 0 % 1016 hPa 0,0 l/m 0,0 km/h (0 Bft) 0 min
30.08.2013 04:42 22,3 C 12,5 C 10,5 C 89 % 0 % 1016 hPa 0,0 l/m 0,0 km/h (0 Bft) 0 min
30.08.2013 04:45 22,3 C 12,5 C 10,4 C 89 % 0 % 1016 hPa 0,0 l/m 0,0 km/h (0 Bft) 0 min
30.08.2013 04:48 22,3 C 12,5 C 10,4 C 89 % 0 % 1016 hPa 0,0 l/m 0,0 km/h (0 Bft) 0 min
30.08.2013 04:51 22,2 C 12,5 C 10,2 C 89 % 0 % 1015 hPa 0,0 l/m 0,0 km/h (0 Bft) 0 min
30.08.2013 04:54 22,3 C 12,5 C 10,6 C 89 % 0 % 1015 hPa 0,0 l/m 0,0 km/h (0 Bft) 0 min
30.08.2013 04:57 22,3 C 12,4 C 10,6 C 89 % 0 % 1016 hPa 0,0 l/m 0,0 km/h (0 Bft) 0 min
30.08.2013 05:00 22,3 C 12,4 C 10,6 C 89 % 0 % 1016 hPa 0,0 l/m 0,0 km/h (0 Bft) 0 min
30.08.2013 05:03 22,3 C 12,4 C 10,6 C 89 % 0 % 1016 hPa 0,0 l/m 0,0 km/h (0 Bft) 0 min
30.08.2013 05:06 22,3 C 12,4 C 10,6 C 89 % 0 % 1016 hPa 0,0 l/m 0,0 km/h (0 Bft) 0 min
30.08.2013 05:09 22,2 C 12,3 C 10,4 C 89 % 0 % 1016 hPa 0,0 l/m 0,0 km/h (0 Bft) 0 min
30.08.2013 05:12 22,3 C 12,3 C 10,1 C 89 % 0 % 1016 hPa 0,0 l/m 0,0 km/h (0 Bft) 0 min
30.08.2013 05:15 22,3 C 12,3 C 9,9 C 89 % 0 % 1016 hPa 0,0 l/m 0,0 km/h (0 Bft) 0 min
30.08.2013 05:18 22,3 C 12,3 C 9,9 C 89 % 0 % 1016 hPa 0,0 l/m 0,0 km/h (0 Bft) 0 min
30.08.2013 05:21 22,3 C 12,2 C 10,0 C 89 % 0 % 1016 hPa 0,0 l/m 0,0 km/h (0 Bft) 0 min
30.08.2013 05:24 22,3 C 12,2 C 10,0 C 89 % 0 % 1015 hPa 0,0 l/m 0,0 km/h (0 Bft) 0 min
30.08.2013 05:27 22,3 C 12,2 C 10,0 C 89 % 0 % 1015 hPa 0,0 l/m 0,0 km/h (0 Bft) 0 min
30.08.2013 05:30 22,3 C 12,2 C 10,4 C 90 % 0 % 1015 hPa 0,0 l/m 0,0 km/h (0 Bft) 0 min
30.08.2013 05:33 22,2 C 12,2 C 10,2 C 90 % 0 % 1015 hPa 0,0 l/m 0,0 km/h (0 Bft) 0 min
30.08.2013 05:36 22,2 C 12,2 C 10,4 C 90 % 0 % 1015 hPa 0,0 l/m 0,0 km/h (0 Bft) 0 min
30.08.2013 05:39 22,2 C 12,1 C 10,4 C 90 % 0 % 1015 hPa 0,0 l/m 0,0 km/h (0 Bft) 0 min
30.08.2013 05:42 22,3 C 12,1 C 10,1 C 90 % 0 % 1015 hPa 0,0 l/m 0,0 km/h (0 Bft) 0 min
30.08.2013 05:45 22,3 C 12,1 C 10,1 C 90 % 0 % 1016 hPa 0,0 l/m 0,0 km/h (0 Bft) 0 min
30.08.2013 05:48 22,3 C 12,0 C 10,2 C 90 % 0 % 1016 hPa 0,0 l/m 0,0 km/h (0 Bft) 0 min
30.08.2013 05:51 22,3 C 12,0 C 10,1 C 90 % 0 % 1016 hPa 0,0 l/m 0,0 km/h (0 Bft) 0 min
30.08.2013 05:54 22,3 C 12,0 C 10,1 C 90 % 0 % 1016 hPa 0,0 l/m 0,0 km/h (0 Bft) 0 min
30.08.2013 05:57 22,2 C 11,9 C 10,0 C 90 % 0 % 1016 hPa 0,0 l/m 0,0 km/h (0 Bft) 0 min
30.08.2013 06:00 22,2 C 11,9 C 10,0 C 90 % 0 % 1015 hPa 0,0 l/m 0,0 km/h (0 Bft) 0 min
30.08.2013 06:03 22,2 C 11,9 C 10,0 C 90 % 0 % 1015 hPa 0,0 l/m 0,0 km/h (0 Bft) 0 min
30.08.2013 06:06 22,3 C 11,9 C 9,9 C 90 % 0 % 1015 hPa 0,0 l/m 0,0 km/h (0 Bft) 0 min
30.08.2013 06:09 22,2 C 11,8 C 10,0 C 90 % 0 % 1015 hPa 0,0 l/m 0,0 km/h (0 Bft) 0 min
30.08.2013 06:12 22,2 C 11,8 C 10,1 C 90 % 0 % 1015 hPa 0,0 l/m 0,0 km/h (0 Bft) 0 min
30.08.2013 06:15 22,2 C 11,7 C 9,9 C 90 % 0 % 1015 hPa 0,0 l/m 0,0 km/h (0 Bft) 0 min
30.08.2013 06:18 22,2 C 11,7 C 9,6 C 90 % 1 % 1015 hPa 0,0 l/m 0,0 km/h (0 Bft) 0 min
30.08.2013 06:21 22,2 C 11,7 C 9,7 C 90 % 1 % 1015 hPa 0,0 l/m 0,0 km/h (0 Bft) 0 min
30.08.2013 06:24 22,2 C 11,7 C 9,7 C 90 % 1 % 1015 hPa 0,0 l/m 0,0 km/h (0 Bft) 0 min
30.08.2013 06:27 22,2 C 11,7 C 9,6 C 90 % 1 % 1015 hPa 0,0 l/m 0,0 km/h (0 Bft) 0 min
30.08.2013 06:30 22,2 C 11,7 C 9,8 C 90 % 2 % 1015 hPa 0,0 l/m 0,0 km/h (0 Bft) 0 min
30.08.2013 06:33 22,2 C 11,7 C 9,9 C 90 % 2 % 1015 hPa 0,0 l/m 0,0 km/h (0 Bft) 0 min
30.08.2013 06:36 22,2 C 11,7 C 10,0 C 90 % 3 % 1015 hPa 0,0 l/m 0,0 km/h (0 Bft) 0 min
30.08.2013 06:39 22,2 C 11,7 C 9,8 C 90 % 3 % 1015 hPa 0,0 l/m 0,0 km/h (0 Bft) 0 min
30.08.2013 06:42 22,2 C 11,7 C 9,8 C 90 % 4 % 1015 hPa 0,0 l/m 0,0 km/h (0 Bft) 0 min
30.08.2013 06:45 22,2 C 11,8 C 10,0 C 90 % 4 % 1015 hPa 0,0 l/m 0,0 km/h (0 Bft) 0 min
30.08.2013 06:48 22,2 C 11,8 C 9,9 C 90 % 5 % 1015 hPa 0,0 l/m 0,0 km/h (0 Bft) 0 min
30.08.2013 06:51 22,2 C 11,8 C 9,9 C 90 % 5 % 1015 hPa 0,0 l/m 0,0 km/h (0 Bft) 0 min
30.08.2013 06:54 22,2 C 11,8 C 9,9 C 90 % 6 % 1016 hPa 0,0 l/m 0,0 km/h (0 Bft) 0 min
30.08.2013 06:57 22,3 C 11,8 C 10,1 C 90 % 6 % 1016 hPa 0,0 l/m 0,0 km/h (0 Bft) 0 min
30.08.2013 07:00 22,3 C 11,8 C 10,1 C 90 % 7 % 1016 hPa 0,0 l/m 0,0 km/h (0 Bft) 0 min
30.08.2013 07:03 22,2 C 11,7 C 10,1 C 90 % 7 % 1016 hPa 0,0 l/m 0,0 km/h (0 Bft) 0 min
30.08.2013 07:06 22,2 C 11,7 C 10,1 C 90 % 7 % 1016 hPa 0,0 l/m 0,0 km/h (0 Bft) 0 min
30.08.2013 07:09 22,2 C 11,8 C 10,3 C 90 % 8 % 1016 hPa 0,0 l/m 0,0 km/h (0 Bft) 0 min
30.08.2013 07:12 22,3 C 11,8 C 10,3 C 90 % 8 % 1016 hPa 0,0 l/m 0,0 km/h (0 Bft) 0 min
30.08.2013 07:15 22,3 C 11,8 C 10,3 C 90 % 9 % 1016 hPa 0,0 l/m 0,0 km/h (0 Bft) 0 min
30.08.2013 07:18 22,3 C 11,8 C 10,3 C 90 % 9 % 1016 hPa 0,0 l/m 0,0 km/h (0 Bft) 0 min
30.08.2013 07:21 22,3 C 11,7 C 10,4 C 91 % 9 % 1016 hPa 0,0 l/m 0,0 km/h (0 Bft) 0 min
30.08.2013 07:24 22,3 C 11,7 C 10,5 C 91 % 10 % 1016 hPa 0,0 l/m 0,0 km/h (0 Bft) 0 min
30.08.2013 07:27 22,3 C 11,8 C 10,6 C 91 % 10 % 1016 hPa 0,0 l/m 0,0 km/h (0 Bft) 0 min
30.08.2013 07:30 22,4 C 11,9 C 10,7 C 91 % 10 % 1016 hPa 0,0 l/m 0,0 km/h (0 Bft) 0 min
30.08.2013 07:33 22,4 C 12,0 C 10,8 C 91 % 10 % 1016 hPa 0,0 l/m 0,0 km/h (0 Bft) 0 min
30.08.2013 07:36 22,4 C 12,1 C 10,8 C 91 % 10 % 1016 hPa 0,0 l/m 0,0 km/h (0 Bft) 0 min
30.08.2013 07:39 22,4 C 12,1 C 10,9 C 91 % 10 % 1016 hPa 0,0 l/m 0,0 km/h (0 Bft) 0 min
30.08.2013 07:42 22,4 C 12,2 C 10,9 C 91 % 10 % 1016 hPa 0,0 l/m 0,0 km/h (0 Bft) 0 min
30.08.2013 07:45 22,4 C 12,1 C 11,4 C 90 % 11 % 1016 hPa 0,0 l/m 0,3 km/h (0 Bft) 0 min
30.08.2013 07:48 22,4 C 12,0 C 11,3 C 90 % 11 % 1016 hPa 0,0 l/m 3,8 km/h (1 Bft) 0 min
30.08.2013 07:51 22,4 C 12,0 C 11,4 C 91 % 11 % 1016 hPa 0,0 l/m 4,2 km/h (1 Bft) 0 min
30.08.2013 07:54 22,4 C 12,0 C 11,5 C 91 % 11 % 1016 hPa 0,0 l/m 4,2 km/h (1 Bft) 0 min
30.08.2013 07:57 22,4 C 12,0 C 11,5 C 91 % 11 % 1016 hPa 0,0 l/m 3,6 km/h (1 Bft) 0 min
30.08.2013 08:00 22,4 C 11,9 C 11,5 C 91 % 11 % 1016 hPa 0,0 l/m 3,3 km/h (1 Bft) 0 min
30.08.2013 08:03 22,4 C 11,9 C 11,4 C 91 % 12 % 1016 hPa 0,0 l/m 2,4 km/h (1 Bft) 0 min
30.08.2013 08:06 22,4 C 11,8 C 11,4 C 92 % 12 % 1016 hPa 0,0 l/m 4,2 km/h (1 Bft) 0 min
30.08.2013 08:09 22,4 C 11,8 C 11,4 C 92 % 15 % 1016 hPa 0,0 l/m 3,6 km/h (1 Bft) 0 min
30.08.2013 08:12 22,4 C 11,7 C 11,6 C 92 % 16 % 1016 hPa 0,0 l/m 3,2 km/h (1 Bft) 0 min
30.08.2013 08:15 22,4 C 11,8 C 11,9 C 93 % 19 % 1016 hPa 0,0 l/m 2,2 km/h (1 Bft) 0 min
30.08.2013 08:18 22,4 C 11,8 C 11,9 C 93 % 18 % 1016 hPa 0,0 l/m 0,1 km/h (0 Bft) 0 min
30.08.2013 08:21 22,4 C 11,9 C 12,4 C 93 % 17 % 1016 hPa 0,0 l/m 0,3 km/h (0 Bft) 0 min
30.08.2013 08:24 22,4 C 11,9 C 12,3 C 93 % 18 % 1016 hPa 0,0 l/m 1,9 km/h (1 Bft) 0 min
30.08.2013 08:27 22,4 C 12,0 C 12,7 C 93 % 21 % 1016 hPa 0,0 l/m 4,4 km/h (1 Bft) 0 min
30.08.2013 08:30 22,4 C 11,9 C 13,1 C 93 % 19 % 1016 hPa 0,0 l/m 4,0 km/h (1 Bft) 0 min
30.08.2013 08:33 22,4 C 11,9 C 12,9 C 93 % 19 % 1016 hPa 0,0 l/m 4,2 km/h (1 Bft) 0 min
30.08.2013 08:36 22,4 C 11,7 C 12,9 C 93 % 19 % 1016 hPa 0,0 l/m 1,9 km/h (1 Bft) 0 min
30.08.2013 08:39 22,4 C 11,7 C 13,0 C 94 % 19 % 1016 hPa 0,0 l/m 5,1 km/h (1 Bft) 0 min
30.08.2013 08:42 22,4 C 11,6 C 13,0 C 94 % 22 % 1016 hPa 0,0 l/m 6,7 km/h (2 Bft) 0 min
30.08.2013 08:45 22,4 C 11,6 C 13,0 C 94 % 20 % 1016 hPa 0,0 l/m 4,7 km/h (1 Bft) 0 min
30.08.2013 08:48 22,4 C 11,5 C 13,2 C 95 % 22 % 1016 hPa 0,0 l/m 5,3 km/h (1 Bft) 0 min
30.08.2013 08:51 22,4 C 11,5 C 13,3 C 95 % 22 % 1016 hPa 0,0 l/m 5,9 km/h (2 Bft) 0 min
30.08.2013 08:54 22,4 C 11,5 C 13,4 C 95 % 24 % 1016 hPa 0,0 l/m 4,7 km/h (1 Bft) 0 min
30.08.2013 08:57 22,4 C 11,5 C 13,6 C 95 % 24 % 1016 hPa 0,0 l/m 3,8 km/h (1 Bft) 0 min
30.08.2013 09:00 22,4 C 11,6 C 13,8 C 95 % 24 % 1016 hPa 0,0 l/m 4,3 km/h (1 Bft) 0 min
30.08.2013 09:03 22,4 C 11,6 C 13,8 C 95 % 25 % 1016 hPa 0,0 l/m 3,9 km/h (1 Bft) 0 min
30.08.2013 09:06 22,4 C 11,7 C 14,0 C 96 % 26 % 1016 hPa 0,0 l/m 6,0 km/h (2 Bft) 0 min
30.08.2013 09:09 22,4 C 11,7 C 14,1 C 96 % 26 % 1016 hPa 0,0 l/m 5,7 km/h (1 Bft) 0 min
30.08.2013 09:12 22,4 C 11,7 C 14,1 C 96 % 26 % 1016 hPa 0,0 l/m 4,0 km/h (1 Bft) 0 min
30.08.2013 09:15 22,4 C 11,7 C 13,7 C 96 % 26 % 1016 hPa 0,0 l/m 3,7 km/h (1 Bft) 0 min
30.08.2013 09:18 22,4 C 11,7 C 14,1 C 96 % 27 % 1016 hPa 0,0 l/m 2,8 km/h (1 Bft) 0 min
30.08.2013 09:21 22,4 C 11,8 C 14,0 C 96 % 26 % 1016 hPa 0,0 l/m 3,9 km/h (1 Bft) 0 min
30.08.2013 09:24 22,5 C 11,8 C 14,5 C 96 % 29 % 1016 hPa 0,0 l/m 4,1 km/h (1 Bft) 0 min
30.08.2013 09:27 22,5 C 11,9 C 14,9 C 96 % 30 % 1016 hPa 0,0 l/m 2,8 km/h (1 Bft) 0 min
30.08.2013 09:30 22,5 C 11,9 C 15,3 C 96 % 31 % 1016 hPa 0,0 l/m 0,3 km/h (0 Bft) 0 min
30.08.2013 09:33 22,5 C 12,0 C 15,1 C 96 % 32 % 1016 hPa 0,0 l/m 0,3 km/h (0 Bft) 0 min
30.08.2013 09:36 22,5 C 12,0 C 15,3 C 96 % 34 % 1016 hPa 0,0 l/m 4,8 km/h (1 Bft) 0 min
30.08.2013 09:39 22,5 C 12,1 C 14,6 C 96 % 32 % 1016 hPa 0,0 l/m 0,1 km/h (0 Bft) 0 min
30.08.2013 09:42 22,5 C 12,1 C 14,6 C 96 % 32 % 1016 hPa 0,0 l/m 1,8 km/h (1 Bft) 0 min
30.08.2013 09:45 22,5 C 12,2 C 15,8 C 96 % 32 % 1016 hPa 0,0 l/m 2,3 km/h (1 Bft) 0 min
30.08.2013 09:48 22,4 C 12,3 C 15,8 C 96 % 40 % 1016 hPa 0,0 l/m 0,7 km/h (0 Bft) 0 min
30.08.2013 09:51 22,4 C 12,3 C 15,8 C 96 % 41 % 1016 hPa 0,0 l/m 0,9 km/h (0 Bft) 0 min
30.08.2013 09:54 22,4 C 12,5 C 16,3 C 96 % 47 % 1016 hPa 0,0 l/m 0,7 km/h (0 Bft) 0 min
30.08.2013 09:57 22,4 C 12,5 C 16,4 C 96 % 49 % 1016 hPa 0,0 l/m 2,5 km/h (1 Bft) 0 min
30.08.2013 10:00 22,4 C 12,8 C 16,3 C 95 % 49 % 1016 hPa 0,0 l/m 0,5 km/h (0 Bft) 0 min
30.08.2013 10:03 22,4 C 12,8 C 16,3 C 95 % 47 % 1016 hPa 0,0 l/m 1,9 km/h (1 Bft) 0 min
30.08.2013 10:06 22,4 C 12,9 C 16,1 C 95 % 46 % 1016 hPa 0,0 l/m 0,4 km/h (0 Bft) 0 min
30.08.2013 10:09 22,4 C 13,0 C 16,5 C 95 % 47 % 1016 hPa 0,0 l/m 3,4 km/h (1 Bft) 0 min
30.08.2013 10:12 22,4 C 13,2 C 17,1 C 95 % 48 % 1016 hPa 0,0 l/m 3,8 km/h (1 Bft) 0 min
30.08.2013 10:15 22,0 C 13,2 C 17,4 C 95 % 48 % 1016 hPa 0,0 l/m 3,8 km/h (1 Bft) 0 min
30.08.2013 10:18 21,6 C 13,6 C 16,6 C 95 % 47 % 1016 hPa 0,0 l/m 0,1 km/h (0 Bft) 0 min
30.08.2013 10:21 21,4 C 13,7 C 16,3 C 95 % 48 % 1016 hPa 0,0 l/m 0,4 km/h (0 Bft) 0 min
30.08.2013 10:24 21,3 C 13,9 C 16,6 C 94 % 49 % 1016 hPa 0,0 l/m 0,1 km/h (0 Bft) 0 min
30.08.2013 10:27 21,4 C 14,1 C 16,9 C 94 % 49 % 1016 hPa 0,0 l/m 0,1 km/h (0 Bft) 0 min
30.08.2013 10:30 21,5 C 14,2 C 17,1 C 94 % 49 % 1016 hPa 0,0 l/m 1,8 km/h (1 Bft) 0 min
30.08.2013 10:33 21,6 C 14,4 C 17,0 C 94 % 48 % 1016 hPa 0,0 l/m 0,4 km/h (0 Bft) 0 min
30.08.2013 10:36 21,6 C 14,5 C 17,1 C 94 % 48 % 1016 hPa 0,0 l/m 2,3 km/h (1 Bft) 0 min
30.08.2013 10:39 21,6 C 14,5 C 17,1 C 94 % 48 % 1016 hPa 0,0 l/m 0,6 km/h (0 Bft) 0 min
30.08.2013 10:42 21,7 C 14,7 C 17,5 C 94 % 51 % 1016 hPa 0,0 l/m 3,0 km/h (1 Bft) 0 min
30.08.2013 10:45 21,7 C 14,8 C 17,3 C 93 % 52 % 1016 hPa 0,0 l/m 0,7 km/h (0 Bft) 0 min
30.08.2013 10:48 21,7 C 14,9 C 17,5 C 93 % 53 % 1016 hPa 0,0 l/m 0,6 km/h (0 Bft) 3 min
30.08.2013 10:51 21,7 C 15,1 C 17,5 C 93 % 54 % 1016 hPa 0,0 l/m 3,0 km/h (1 Bft) 3 min
30.08.2013 10:54 21,8 C 15,1 C 17,9 C 93 % 56 % 1016 hPa 0,0 l/m 0,3 km/h (0 Bft) 3 min
30.08.2013 10:57 21,9 C 15,3 C 18,7 C 93 % 56 % 1016 hPa 0,0 l/m 0,3 km/h (0 Bft) 3 min
30.08.2013 11:00 21,9 C 15,5 C 18,4 C 93 % 56 % 1016 hPa 0,0 l/m 0,4 km/h (0 Bft) 3 min
30.08.2013 11:03 21,9 C 15,6 C 18,9 C 93 % 58 % 1016 hPa 0,0 l/m 4,2 km/h (1 Bft) 3 min
30.08.2013 11:06 21,9 C 15,7 C 18,7 C 92 % 59 % 1016 hPa 0,0 l/m 0,3 km/h (0 Bft) 3 min
30.08.2013 11:09 21,9 C 15,9 C 19,0 C 92 % 59 % 1016 hPa 0,0 l/m 2,6 km/h (1 Bft) 3 min
30.08.2013 11:12 21,9 C 16,0 C 19,1 C 92 % 61 % 1016 hPa 0,0 l/m 3,5 km/h (1 Bft) 3 min
30.08.2013 11:15 21,9 C 16,1 C 19,1 C 92 % 63 % 1016 hPa 0,0 l/m 0,6 km/h (0 Bft) 3 min
30.08.2013 11:18 22,0 C 16,1 C 20,0 C 92 % 64 % 1016 hPa 0,0 l/m 2,5 km/h (1 Bft) 3 min
30.08.2013 11:21 22,0 C 16,1 C 20,1 C 92 % 69 % 1016 hPa 0,0 l/m 2,2 km/h (1 Bft) 3 min
30.08.2013 11:24 22,0 C 16,5 C 20,1 C 92 % 69 % 1016 hPa 0,0 l/m 5,1 km/h (1 Bft) 3 min
30.08.2013 11:27 22,1 C 16,6 C 20,1 C 91 % 71 % 1016 hPa 0,0 l/m 0,1 km/h (0 Bft) 3 min
30.08.2013 11:30 22,0 C 16,8 C 19,9 C 91 % 71 % 1016 hPa 0,0 l/m 3,1 km/h (1 Bft) 3 min
30.08.2013 11:33 22,1 C 16,9 C 20,4 C 91 % 72 % 1015 hPa 0,0 l/m 1,0 km/h (0 Bft) 3 min
30.08.2013 11:36 22,1 C 17,1 C 20,2 C 91 % 75 % 1015 hPa 0,0 l/m 1,6 km/h (1 Bft) 3 min
30.08.2013 11:39 22,2 C 17,2 C 20,4 C 90 % 76 % 1015 hPa 0,0 l/m 1,6 km/h (1 Bft) 3 min
30.08.2013 11:42 22,2 C 17,3 C 20,6 C 89 % 76 % 1015 hPa 0,0 l/m 1,6 km/h (1 Bft) 3 min
30.08.2013 11:45 22,2 C 17,5 C 20,5 C 89 % 77 % 1015 hPa 0,0 l/m 0,5 km/h (0 Bft) 3 min
30.08.2013 11:48 22,2 C 17,6 C 20,1 C 89 % 77 % 1015 hPa 0,0 l/m 1,7 km/h (1 Bft) 3 min
30.08.2013 11:51 22,2 C 17,6 C 21,0 C 88 % 79 % 1015 hPa 0,0 l/m 3,7 km/h (1 Bft) 3 min
30.08.2013 11:54 22,2 C 17,8 C 20,6 C 88 % 80 % 1015 hPa 0,0 l/m 1,0 km/h (0 Bft) 3 min
30.08.2013 11:57 22,2 C 18,1 C 21,0 C 87 % 81 % 1015 hPa 0,0 l/m 0,4 km/h (0 Bft) 3 min
30.08.2013 12:00 22,2 C 18,2 C 22,6 C 86 % 83 % 1015 hPa 0,0 l/m 2,6 km/h (1 Bft) 3 min
30.08.2013 12:03 22,2 C 18,3 C 21,6 C 85 % 85 % 1015 hPa 0,0 l/m 4,6 km/h (1 Bft) 3 min
30.08.2013 12:06 22,2 C 18,4 C 21,1 C 82 % 87 % 1015 hPa 0,0 l/m 7,8 km/h (2 Bft) 3 min
30.08.2013 12:09 22,3 C 18,5 C 21,5 C 83 % 89 % 1015 hPa 0,0 l/m 4,3 km/h (1 Bft) 3 min
30.08.2013 12:12 22,5 C 18,6 C 21,4 C 83 % 92 % 1015 hPa 0,0 l/m 6,5 km/h (2 Bft) 3 min
30.08.2013 12:15 22,6 C 18,7 C 21,1 C 81 % 94 % 1015 hPa 0,0 l/m 3,0 km/h (1 Bft) 3 min
30.08.2013 12:18 22,6 C 18,8 C 21,9 C 81 % 98 % 1015 hPa 0,0 l/m 3,0 km/h (1 Bft) 3 min
30.08.2013 12:21 22,6 C 18,9 C 21,9 C 82 % 100 % 1015 hPa 0,0 l/m 1,0 km/h (0 Bft) 3 min
30.08.2013 12:24 22,6 C 19,0 C 22,4 C 79 % 100 % 1015 hPa 0,0 l/m 4,0 km/h (1 Bft) 3 min
30.08.2013 12:27 22,6 C 19,1 C 22,1 C 79 % 100 % 1015 hPa 0,0 l/m 0,9 km/h (0 Bft) 3 min
30.08.2013 12:30 22,6 C 19,2 C 23,8 C 78 % 100 % 1015 hPa 0,0 l/m 0,7 km/h (0 Bft) 3 min
30.08.2013 12:33 22,6 C 19,3 C 23,7 C 78 % 100 % 1015 hPa 0,0 l/m 3,4 km/h (1 Bft) 3 min
30.08.2013 12:36 22,6 C 19,4 C 23,0 C 76 % 100 % 1015 hPa 0,0 l/m 4,8 km/h (1 Bft) 3 min
30.08.2013 12:39 22,6 C 19,5 C 23,0 C 76 % 100 % 1015 hPa 0,0 l/m 4,2 km/h (1 Bft) 3 min
30.08.2013 12:42 22,6 C 19,5 C 23,0 C 75 % 100 % 1015 hPa 0,0 l/m 3,7 km/h (1 Bft) 3 min
30.08.2013 12:45 22,5 C 19,6 C 24,3 C 74 % 100 % 1015 hPa 0,0 l/m 1,8 km/h (1 Bft) 3 min
30.08.2013 12:48 22,6 C 19,7 C 23,8 C 73 % 100 % 1015 hPa 0,0 l/m 4,1 km/h (1 Bft) 3 min
30.08.2013 12:51 22,5 C 19,8 C 23,9 C 73 % 100 % 1015 hPa 0,0 l/m 4,1 km/h (1 Bft) 3 min
30.08.2013 12:54 22,6 C 19,9 C 24,5 C 73 % 100 % 1015 hPa 0,0 l/m 5,8 km/h (2 Bft) 3 min
30.08.2013 12:57 22,6 C 19,9 C 24,1 C 71 % 100 % 1015 hPa 0,0 l/m 3,9 km/h (1 Bft) 3 min
30.08.2013 13:00 22,5 C 20,0 C 23,5 C 70 % 100 % 1015 hPa 0,0 l/m 1,2 km/h (1 Bft) 3 min
30.08.2013 13:03 22,5 C 20,0 C 23,3 C 71 % 100 % 1015 hPa 0,0 l/m 4,0 km/h (1 Bft) 3 min
30.08.2013 13:06 22,5 C 20,1 C 23,7 C 69 % 100 % 1015 hPa 0,0 l/m 3,8 km/h (1 Bft) 3 min
30.08.2013 13:09 22,5 C 20,1 C 24,3 C 68 % 100 % 1015 hPa 0,0 l/m 5,5 km/h (1 Bft) 3 min
30.08.2013 13:12 22,5 C 20,2 C 25,6 C 69 % 100 % 1015 hPa 0,0 l/m 5,2 km/h (1 Bft) 3 min
30.08.2013 13:15 22,5 C 20,3 C 26,8 C 68 % 100 % 1015 hPa 0,0 l/m 6,1 km/h (2 Bft) 3 min
30.08.2013 13:18 22,5 C 20,3 C 25,6 C 67 % 100 % 1015 hPa 0,0 l/m 2,1 km/h (1 Bft) 3 min
30.08.2013 13:21 22,4 C 20,4 C 25,2 C 67 % 100 % 1015 hPa 0,0 l/m 2,3 km/h (1 Bft) 3 min
30.08.2013 13:24 22,5 C 20,6 C 25,3 C 66 % 100 % 1015 hPa 0,0 l/m 4,3 km/h (1 Bft) 3 min
30.08.2013 13:27 22,4 C 20,6 C 24,5 C 66 % 100 % 1015 hPa 0,0 l/m 4,4 km/h (1 Bft) 3 min
30.08.2013 13:30 22,5 C 20,7 C 24,7 C 64 % 100 % 1015 hPa 0,0 l/m 0,0 km/h (0 Bft) 3 min
30.08.2013 13:33 22,4 C 20,7 C 25,0 C 65 % 100 % 1015 hPa 0,0 l/m 3,6 km/h (1 Bft) 3 min
30.08.2013 13:36 22,4 C 20,8 C 26,3 C 63 % 100 % 1015 hPa 0,0 l/m 5,9 km/h (2 Bft) 3 min
30.08.2013 13:39 22,4 C 20,8 C 26,5 C 58 % 100 % 1015 hPa 0,0 l/m 1,0 km/h (0 Bft) 3 min
30.08.2013 13:42 22,4 C 20,8 C 26,5 C 59 % 100 % 1015 hPa 0,0 l/m 5,7 km/h (1 Bft) 3 min
30.08.2013 13:45 22,4 C 20,9 C 25,1 C 59 % 100 % 1015 hPa 0,0 l/m 6,1 km/h (2 Bft) 3 min
30.08.2013 13:48 22,6 C 21,0 C 24,7 C 59 % 100 % 1015 hPa 0,0 l/m 0,4 km/h (0 Bft) 3 min
30.08.2013 13:51 22,6 C 21,0 C 25,6 C 60 % 100 % 1015 hPa 0,0 l/m 6,9 km/h (2 Bft) 3 min
30.08.2013 13:54 22,6 C 21,0 C 27,0 C 59 % 100 % 1015 hPa 0,0 l/m 1,2 km/h (1 Bft) 3 min
30.08.2013 13:57 22,6 C 21,0 C 26,4 C 59 % 100 % 1015 hPa 0,0 l/m 5,6 km/h (1 Bft) 3 min
30.08.2013 14:00 22,6 C 21,1 C 26,7 C 59 % 100 % 1015 hPa 0,0 l/m 4,2 km/h (1 Bft) 3 min
30.08.2013 14:03 22,6 C 21,2 C 27,1 C 57 % 100 % 1015 hPa 0,0 l/m 6,7 km/h (2 Bft) 3 min
30.08.2013 14:06 22,6 C 21,2 C 27,1 C 56 % 100 % 1015 hPa 0,0 l/m 6,7 km/h (2 Bft) 3 min
30.08.2013 14:09 22,6 C 21,2 C 26,3 C 56 % 100 % 1015 hPa 0,0 l/m 1,8 km/h (1 Bft) 3 min
30.08.2013 14:12 22,6 C 21,2 C 27,6 C 55 % 100 % 1015 hPa 0,0 l/m 2,5 km/h (1 Bft) 3 min
30.08.2013 14:15 22,6 C 21,2 C 28,1 C 56 % 100 % 1015 hPa 0,0 l/m 1,0 km/h (0 Bft) 3 min
30.08.2013 14:18 22,6 C 21,3 C 28,1 C 56 % 100 % 1015 hPa 0,0 l/m 10,5 km/h (2 Bft) 3 min
30.08.2013 14:21 22,6 C 21,4 C 28,0 C 55 % 100 % 1015 hPa 0,0 l/m 9,4 km/h (2 Bft) 3 min
30.08.2013 14:24 22,6 C 21,5 C 28,5 C 54 % 100 % 1015 hPa 0,0 l/m 4,7 km/h (1 Bft) 3 min
30.08.2013 14:27 22,6 C 21,4 C 27,7 C 54 % 100 % 1014 hPa 0,0 l/m 3,7 km/h (1 Bft) 3 min
30.08.2013 14:30 22,6 C 21,5 C 27,6 C 55 % 100 % 1014 hPa 0,0 l/m 2,4 km/h (1 Bft) 3 min
30.08.2013 14:33 22,6 C 21,5 C 28,1 C 55 % 100 % 1014 hPa 0,0 l/m 3,4 km/h (1 Bft) 3 min
30.08.2013 14:36 22,6 C 21,5 C 27,8 C 54 % 100 % 1014 hPa 0,0 l/m 9,6 km/h (2 Bft) 3 min
30.08.2013 14:39 22,6 C 21,6 C 28,4 C 52 % 100 % 1014 hPa 0,0 l/m 7,2 km/h (2 Bft) 3 min
30.08.2013 14:42 22,6 C 21,5 C 27,9 C 51 % 100 % 1014 hPa 0,0 l/m 1,6 km/h (1 Bft) 3 min
30.08.2013 14:45 22,6 C 21,5 C 27,8 C 51 % 100 % 1014 hPa 0,0 l/m 4,0 km/h (1 Bft) 3 min
30.08.2013 14:48 22,6 C 21,5 C 26,4 C 52 % 100 % 1014 hPa 0,0 l/m 0,7 km/h (0 Bft) 3 min
30.08.2013 14:51 22,6 C 21,6 C 28,0 C 53 % 100 % 1014 hPa 0,0 l/m 2,9 km/h (1 Bft) 3 min
30.08.2013 14:54 22,6 C 21,8 C 27,4 C 51 % 100 % 1014 hPa 0,0 l/m 5,5 km/h (1 Bft) 3 min
30.08.2013 14:57 22,6 C 21,8 C 27,0 C 53 % 100 % 1014 hPa 0,0 l/m 5,2 km/h (1 Bft) 3 min
30.08.2013 15:00 22,6 C 21,8 C 27,2 C 49 % 100 % 1014 hPa 0,0 l/m 7,2 km/h (2 Bft) 3 min
30.08.2013 15:03 22,6 C 21,8 C 26,0 C 46 % 100 % 1014 hPa 0,0 l/m 8,3 km/h (2 Bft) 3 min
30.08.2013 15:06 22,6 C 21,8 C 26,3 C 49 % 100 % 1014 hPa 0,0 l/m 8,3 km/h (2 Bft) 3 min
30.08.2013 15:09 22,6 C 21,8 C 25,5 C 51 % 100 % 1014 hPa 0,0 l/m 2,4 km/h (1 Bft) 3 min
30.08.2013 15:12 22,6 C 21,9 C 24,9 C 51 % 100 % 1014 hPa 0,0 l/m 1,2 km/h (1 Bft) 3 min
30.08.2013 15:15 22,6 C 21,9 C 24,7 C 50 % 100 % 1014 hPa 0,0 l/m 2,0 km/h (1 Bft) 3 min
30.08.2013 15:18 22,6 C 21,9 C 24,1 C 50 % 100 % 1014 hPa 0,0 l/m 3,8 km/h (1 Bft) 3 min
30.08.2013 15:21 22,6 C 21,9 C 24,1 C 49 % 100 % 1014 hPa 0,0 l/m 3,5 km/h (1 Bft) 3 min
30.08.2013 15:24 22,6 C 21,9 C 23,8 C 51 % 100 % 1014 hPa 0,0 l/m 3,5 km/h (1 Bft) 3 min
30.08.2013 15:27 22,6 C 21,9 C 25,1 C 51 % 100 % 1014 hPa 0,0 l/m 4,1 km/h (1 Bft) 3 min
30.08.2013 15:30 22,6 C 21,9 C 25,5 C 51 % 100 % 1014 hPa 0,0 l/m 3,9 km/h (1 Bft) 3 min
30.08.2013 15:33 22,6 C 21,9 C 24,2 C 52 % 100 % 1014 hPa 0,0 l/m 4,0 km/h (1 Bft) 3 min
30.08.2013 15:36 22,6 C 21,9 C 25,4 C 51 % 100 % 1014 hPa 0,0 l/m 7,7 km/h (2 Bft) 3 min
30.08.2013 15:39 22,6 C 21,9 C 25,4 C 50 % 100 % 1014 hPa 0,0 l/m 6,5 km/h (2 Bft) 3 min
30.08.2013 15:42 22,6 C 22,0 C 24,9 C 50 % 100 % 1014 hPa 0,0 l/m 11,2 km/h (2 Bft) 3 min
30.08.2013 15:45 22,6 C 22,0 C 24,6 C 47 % 100 % 1014 hPa 0,0 l/m 11,2 km/h (2 Bft) 3 min
30.08.2013 15:48 22,6 C 22,0 C 24,5 C 45 % 100 % 1014 hPa 0,0 l/m 9,3 km/h (2 Bft) 3 min
30.08.2013 15:51 22,6 C 22,0 C 24,0 C 45 % 100 % 1014 hPa 0,0 l/m 11,1 km/h (2 Bft) 3 min
30.08.2013 15:54 22,6 C 22,0 C 23,9 C 45 % 100 % 1014 hPa 0,0 l/m 7,4 km/h (2 Bft) 3 min
30.08.2013 15:57 22,6 C 21,9 C 23,6 C 44 % 100 % 1014 hPa 0,0 l/m 7,8 km/h (2 Bft) 3 min
30.08.2013 16:00 22,6 C 22,0 C 23,7 C 44 % 100 % 1014 hPa 0,0 l/m 8,9 km/h (2 Bft) 3 min
30.08.2013 16:03 22,6 C 21,9 C 23,8 C 43 % 100 % 1014 hPa 0,0 l/m 8,9 km/h (2 Bft) 3 min
30.08.2013 16:06 22,6 C 21,9 C 23,5 C 45 % 100 % 1014 hPa 0,0 l/m 7,0 km/h (2 Bft) 3 min
30.08.2013 16:09 22,6 C 21,9 C 23,5 C 44 % 100 % 1014 hPa 0,0 l/m 6,7 km/h (2 Bft) 3 min
30.08.2013 16:12 22,5 C 21,9 C 23,4 C 45 % 100 % 1014 hPa 0,0 l/m 4,2 km/h (1 Bft) 3 min
30.08.2013 16:15 22,6 C 21,8 C 22,6 C 46 % 100 % 1014 hPa 0,0 l/m 2,4 km/h (1 Bft) 3 min
30.08.2013 16:18 22,5 C 21,8 C 22,7 C 46 % 100 % 1014 hPa 0,0 l/m 2,4 km/h (1 Bft) 3 min
30.08.2013 16:21 22,5 C 21,8 C 22,7 C 46 % 100 % 1014 hPa 0,0 l/m 0,1 km/h (0 Bft) 3 min
30.08.2013 16:24 22,5 C 21,8 C 22,7 C 47 % 100 % 1014 hPa 0,0 l/m 6,2 km/h (2 Bft) 3 min
30.08.2013 16:27 22,5 C 21,9 C 22,9 C 46 % 100 % 1013 hPa 0,0 l/m 6,3 km/h (2 Bft) 3 min
30.08.2013 16:30 22,5 C 21,9 C 23,0 C 44 % 100 % 1013 hPa 0,0 l/m 4,5 km/h (1 Bft) 3 min
30.08.2013 16:33 22,5 C 21,8 C 22,9 C 45 % 100 % 1013 hPa 0,0 l/m 4,5 km/h (1 Bft) 3 min
30.08.2013 16:36 22,5 C 21,8 C 22,9 C 45 % 100 % 1013 hPa 0,0 l/m 4,0 km/h (1 Bft) 3 min
30.08.2013 16:39 22,5 C 21,8 C 22,8 C 44 % 100 % 1013 hPa 0,0 l/m 7,6 km/h (2 Bft) 3 min
30.08.2013 16:42 22,5 C 21,8 C 23,0 C 43 % 100 % 1013 hPa 0,0 l/m 6,1 km/h (2 Bft) 3 min
30.08.2013 16:45 22,5 C 21,8 C 22,4 C 44 % 100 % 1013 hPa 0,0 l/m 7,5 km/h (2 Bft) 3 min
30.08.2013 16:48 22,5 C 21,8 C 22,3 C 46 % 100 % 1013 hPa 0,0 l/m 2,8 km/h (1 Bft) 3 min
30.08.2013 16:51 22,5 C 21,7 C 22,8 C 47 % 100 % 1013 hPa 0,0 l/m 3,2 km/h (1 Bft) 3 min
30.08.2013 16:54 22,5 C 21,7 C 22,7 C 45 % 100 % 1013 hPa 0,0 l/m 4,0 km/h (1 Bft) 3 min
30.08.2013 16:57 22,5 C 21,7 C 22,4 C 46 % 99 % 1013 hPa 0,0 l/m 2,8 km/h (1 Bft) 3 min
30.08.2013 17:00 22,5 C 21,6 C 22,3 C 46 % 95 % 1013 hPa 0,0 l/m 8,1 km/h (2 Bft) 3 min
30.08.2013 17:03 22,5 C 21,7 C 22,3 C 44 % 90 % 1013 hPa 0,0 l/m 3,7 km/h (1 Bft) 3 min
30.08.2013 17:06 22,5 C 21,6 C 22,1 C 44 % 85 % 1013 hPa 0,0 l/m 2,8 km/h (1 Bft) 3 min
30.08.2013 17:09 22,5 C 21,5 C 22,0 C 44 % 80 % 1013 hPa 0,0 l/m 2,9 km/h (1 Bft) 3 min
30.08.2013 17:12 22,5 C 21,5 C 21,9 C 43 % 75 % 1013 hPa 0,0 l/m 3,1 km/h (1 Bft) 3 min
30.08.2013 17:15 22,4 C 21,5 C 22,1 C 44 % 71 % 1013 hPa 0,0 l/m 5,3 km/h (1 Bft) 3 min
30.08.2013 17:18 22,4 C 21,5 C 22,1 C 43 % 65 % 1013 hPa 0,0 l/m 2,2 km/h (1 Bft) 3 min
30.08.2013 17:21 22,4 C 21,4 C 21,7 C 43 % 63 % 1013 hPa 0,0 l/m 0,1 km/h (0 Bft) 3 min
30.08.2013 17:24 22,4 C 21,4 C 21,6 C 43 % 62 % 1013 hPa 0,0 l/m 0,1 km/h (0 Bft) 3 min
30.08.2013 17:27 22,4 C 21,3 C 21,6 C 44 % 59 % 1013 hPa 0,0 l/m 0,0 km/h (0 Bft) 3 min
30.08.2013 17:30 22,4 C 21,3 C 21,6 C 44 % 56 % 1013 hPa 0,0 l/m 0,0 km/h (0 Bft) 3 min
30.08.2013 17:33 22,4 C 21,3 C 21,7 C 44 % 54 % 1013 hPa 0,0 l/m 0,0 km/h (0 Bft) 3 min
30.08.2013 17:36 22,4 C 21,2 C 21,8 C 44 % 52 % 1013 hPa 0,0 l/m 5,7 km/h (1 Bft) 3 min
30.08.2013 17:39 22,4 C 21,2 C 21,8 C 43 % 52 % 1013 hPa 0,0 l/m 0,1 km/h (0 Bft) 3 min
30.08.2013 17:42 22,4 C 21,2 C 21,6 C 44 % 47 % 1013 hPa 0,0 l/m 0,1 km/h (0 Bft) 3 min
30.08.2013 17:45 22,4 C 21,2 C 21,5 C 43 % 44 % 1013 hPa 0,0 l/m 0,6 km/h (0 Bft) 3 min
30.08.2013 17:48 22,4 C 21,1 C 21,5 C 44 % 43 % 1013 hPa 0,0 l/m 5,1 km/h (1 Bft) 3 min
30.08.2013 17:51 22,4 C 21,1 C 21,4 C 45 % 42 % 1013 hPa 0,0 l/m 5,1 km/h (1 Bft) 3 min
30.08.2013 17:54 22,4 C 21,1 C 21,3 C 47 % 40 % 1013 hPa 0,0 l/m 3,4 km/h (1 Bft) 3 min
30.08.2013 17:57 22,4 C 21,0 C 21,2 C 47 % 35 % 1013 hPa 0,0 l/m 3,4 km/h (1 Bft) 3 min
30.08.2013 18:00 22,4 C 21,0 C 21,1 C 47 % 36 % 1013 hPa 0,0 l/m 3,4 km/h (1 Bft) 3 min
30.08.2013 18:03 22,4 C 20,9 C 21,0 C 47 % 34 % 1013 hPa 0,0 l/m 1,0 km/h (0 Bft) 3 min
30.08.2013 18:06 22,4 C 20,9 C 21,0 C 47 % 33 % 1013 hPa 0,0 l/m 1,0 km/h (0 Bft) 3 min
30.08.2013 18:09 22,4 C 20,8 C 20,7 C 47 % 33 % 1013 hPa 0,0 l/m 0,3 km/h (0 Bft) 3 min
30.08.2013 18:12 22,4 C 20,8 C 20,7 C 47 % 31 % 1013 hPa 0,0 l/m 0,3 km/h (0 Bft) 3 min
30.08.2013 18:15 22,5 C 20,7 C 20,7 C 47 % 32 % 1013 hPa 0,0 l/m 1,2 km/h (1 Bft) 3 min
30.08.2013 18:18 22,4 C 20,7 C 20,7 C 47 % 30 % 1013 hPa 0,0 l/m 0,0 km/h (0 Bft) 3 min
30.08.2013 18:21 22,4 C 20,7 C 20,6 C 47 % 30 % 1013 hPa 0,0 l/m 0,3 km/h (0 Bft) 3 min
30.08.2013 18:24 22,4 C 20,6 C 20,6 C 47 % 28 % 1013 hPa 0,0 l/m 0,0 km/h (0 Bft) 3 min
30.08.2013 18:27 22,5 C 20,6 C 20,6 C 47 % 28 % 1013 hPa 0,0 l/m 0,0 km/h (0 Bft) 3 min
30.08.2013 18:30 22,5 C 20,5 C 20,6 C 47 % 27 % 1013 hPa 0,0 l/m 0,0 km/h (0 Bft) 3 min
30.08.2013 18:33 22,5 C 20,5 C 20,6 C 47 % 27 % 1013 hPa 0,0 l/m 0,0 km/h (0 Bft) 3 min
30.08.2013 18:36 22,4 C 20,4 C 20,4 C 47 % 24 % 1013 hPa 0,0 l/m 0,0 km/h (0 Bft) 3 min
30.08.2013 18:39 22,5 C 20,4 C 20,1 C 48 % 24 % 1013 hPa 0,0 l/m 0,0 km/h (0 Bft) 3 min
30.08.2013 18:42 22,4 C 20,3 C 20,2 C 48 % 23 % 1013 hPa 0,0 l/m 0,0 km/h (0 Bft) 3 min
30.08.2013 18:45 22,4 C 20,3 C 20,2 C 48 % 22 % 1013 hPa 0,0 l/m 0,0 km/h (0 Bft) 3 min
30.08.2013 18:48 22,5 C 20,2 C 20,2 C 48 % 21 % 1013 hPa 0,0 l/m 0,0 km/h (0 Bft) 3 min
30.08.2013 18:51 22,4 C 20,2 C 20,1 C 49 % 19 % 1013 hPa 0,0 l/m 0,0 km/h (0 Bft) 3 min
30.08.2013 18:54 22,5 C 20,2 C 20,1 C 49 % 18 % 1013 hPa 0,0 l/m 0,0 km/h (0 Bft) 3 min
30.08.2013 18:57 22,5 C 20,1 C 20,0 C 49 % 17 % 1013 hPa 0,0 l/m 0,0 km/h (0 Bft) 3 min
30.08.2013 19:00 22,5 C 20,0 C 20,0 C 50 % 16 % 1013 hPa 0,0 l/m 0,0 km/h (0 Bft) 3 min
30.08.2013 19:03 22,4 C 19,9 C 20,2 C 50 % 16 % 1013 hPa 0,0 l/m 0,0 km/h (0 Bft) 3 min
30.08.2013 19:06 22,5 C 19,9 C 20,4 C 50 % 15 % 1013 hPa 0,0 l/m 0,0 km/h (0 Bft) 3 min
30.08.2013 19:09 22,4 C 19,8 C 20,1 C 51 % 13 % 1013 hPa 0,0 l/m 0,0 km/h (0 Bft) 3 min
30.08.2013 19:12 22,4 C 19,8 C 19,7 C 50 % 11 % 1013 hPa 0,0 l/m 0,0 km/h (0 Bft) 3 min
30.08.2013 19:15 22,4 C 19,7 C 19,5 C 50 % 11 % 1013 hPa 0,0 l/m 0,0 km/h (0 Bft) 3 min
30.08.2013 19:18 22,4 C 19,7 C 19,3 C 49 % 11 % 1013 hPa 0,0 l/m 0,0 km/h (0 Bft) 3 min
30.08.2013 19:21 22,4 C 19,6 C 18,9 C 49 % 9 % 1013 hPa 0,0 l/m 0,0 km/h (0 Bft) 3 min
30.08.2013 19:24 22,5 C 19,6 C 18,9 C 49 % 9 % 1013 hPa 0,0 l/m 0,0 km/h (0 Bft) 3 min
30.08.2013 19:27 22,5 C 19,5 C 19,0 C 49 % 8 % 1013 hPa 0,0 l/m 0,0 km/h (0 Bft) 3 min
30.08.2013 19:30 22,5 C 19,5 C 18,5 C 49 % 6 % 1013 hPa 0,0 l/m 0,0 km/h (0 Bft) 3 min
30.08.2013 19:33 22,4 C 19,4 C 18,1 C 50 % 5 % 1013 hPa 0,0 l/m 0,0 km/h (0 Bft) 3 min
30.08.2013 19:36 22,4 C 19,3 C 17,8 C 50 % 5 % 1013 hPa 0,0 l/m 4,1 km/h (1 Bft) 3 min
30.08.2013 19:39 22,5 C 19,3 C 17,7 C 50 % 4 % 1013 hPa 0,0 l/m 0,0 km/h (0 Bft) 3 min
30.08.2013 19:42 22,5 C 19,2 C 17,5 C 50 % 3 % 1013 hPa 0,0 l/m 0,0 km/h (0 Bft) 0 min
30.08.2013 19:45 22,4 C 19,1 C 17,4 C 51 % 3 % 1013 hPa 0,0 l/m 0,0 km/h (0 Bft) 0 min
30.08.2013 19:48 22,4 C 19,1 C 17,1 C 52 % 2 % 1013 hPa 0,0 l/m 0,0 km/h (0 Bft) 0 min
30.08.2013 19:51 22,4 C 19,1 C 17,0 C 52 % 2 % 1013 hPa 0,0 l/m 0,0 km/h (0 Bft) 0 min
30.08.2013 19:54 22,4 C 19,0 C 17,0 C 53 % 1 % 1013 hPa 0,0 l/m 0,0 km/h (0 Bft) 0 min
30.08.2013 19:57 22,4 C 18,9 C 17,1 C 53 % 1 % 1013 hPa 0,0 l/m 0,0 km/h (0 Bft) 0 min
30.08.2013 20:00 22,4 C 18,9 C 16,8 C 54 % 1 % 1013 hPa 0,0 l/m 0,0 km/h (0 Bft) 0 min
30.08.2013 20:03 22,4 C 18,8 C 16,7 C 55 % 0 % 1013 hPa 0,0 l/m 0,0 km/h (0 Bft) 0 min
30.08.2013 20:06 22,4 C 18,8 C 16,5 C 55 % 0 % 1013 hPa 0,0 l/m 0,0 km/h (0 Bft) 0 min
30.08.2013 20:09 22,4 C 18,7 C 16,5 C 55 % 0 % 1013 hPa 0,0 l/m 0,0 km/h (0 Bft) 0 min
30.08.2013 20:12 22,4 C 18,7 C 16,4 C 56 % 0 % 1013 hPa 0,0 l/m 0,0 km/h (0 Bft) 0 min
30.08.2013 20:15 22,4 C 18,7 C 16,3 C 56 % 0 % 1014 hPa 0,0 l/m 0,0 km/h (0 Bft) 0 min
30.08.2013 20:18 22,4 C 18,6 C 16,3 C 56 % 0 % 1014 hPa 0,0 l/m 0,0 km/h (0 Bft) 0 min
30.08.2013 20:21 22,4 C 18,6 C 16,2 C 56 % 0 % 1014 hPa 0,0 l/m 0,0 km/h (0 Bft) 0 min
30.08.2013 20:24 22,4 C 18,5 C 16,0 C 57 % 0 % 1014 hPa 0,0 l/m 0,0 km/h (0 Bft) 0 min
30.08.2013 20:27 22,4 C 18,5 C 16,1 C 57 % 0 % 1014 hPa 0,0 l/m 0,0 km/h (0 Bft) 0 min
30.08.2013 20:30 22,4 C 18,5 C 16,0 C 58 % 0 % 1014 hPa 0,0 l/m 0,0 km/h (0 Bft) 0 min
30.08.2013 20:33 22,4 C 18,5 C 16,0 C 58 % 0 % 1014 hPa 0,0 l/m 0,0 km/h (0 Bft) 0 min
30.08.2013 20:36 22,4 C 18,5 C 15,8 C 58 % 0 % 1014 hPa 0,0 l/m 0,3 km/h (0 Bft) 0 min
30.08.2013 20:39 22,4 C 18,3 C 16,1 C 59 % 0 % 1014 hPa 0,0 l/m 0,8 km/h (0 Bft) 0 min
30.08.2013 20:42 22,4 C 18,3 C 16,2 C 59 % 0 % 1014 hPa 0,0 l/m 1,8 km/h (1 Bft) 0 min
30.08.2013 20:45 22,4 C 18,3 C 16,1 C 59 % 0 % 1014 hPa 0,0 l/m 1,8 km/h (1 Bft) 0 min
30.08.2013 20:48 22,4 C 18,1 C 16,2 C 61 % 0 % 1014 hPa 0,0 l/m 6,4 km/h (2 Bft) 0 min
30.08.2013 20:51 22,4 C 18,1 C 16,1 C 62 % 0 % 1014 hPa 0,0 l/m 0,1 km/h (0 Bft) 0 min
30.08.2013 20:54 22,4 C 18,1 C 15,9 C 63 % 0 % 1014 hPa 0,0 l/m 2,1 km/h (1 Bft) 0 min
30.08.2013 20:57 22,4 C 18,1 C 15,9 C 63 % 0 % 1014 hPa 0,0 l/m 1,0 km/h (0 Bft) 0 min
30.08.2013 21:00 22,4 C 18,1 C 16,2 C 63 % 0 % 1014 hPa 0,0 l/m 3,5 km/h (1 Bft) 0 min
30.08.2013 21:03 22,4 C 18,1 C 16,2 C 63 % 0 % 1014 hPa 0,0 l/m 3,5 km/h (1 Bft) 0 min
30.08.2013 21:06 22,4 C 18,0 C 15,6 C 63 % 0 % 1014 hPa 0,0 l/m 0,0 km/h (0 Bft) 0 min
30.08.2013 21:09 22,4 C 17,9 C 15,6 C 63 % 0 % 1014 hPa 0,0 l/m 0,2 km/h (0 Bft) 0 min
30.08.2013 21:12 22,4 C 17,9 C 15,8 C 63 % 0 % 1014 hPa 0,0 l/m 0,6 km/h (0 Bft) 0 min
30.08.2013 21:15 22,4 C 17,9 C 15,3 C 63 % 0 % 1014 hPa 0,0 l/m 1,5 km/h (1 Bft) 0 min
30.08.2013 21:18 22,4 C 17,8 C 15,8 C 63 % 0 % 1014 hPa 0,0 l/m 0,3 km/h (0 Bft) 0 min
30.08.2013 21:21 22,4 C 17,7 C 15,7 C 64 % 0 % 1014 hPa 0,0 l/m 0,0 km/h (0 Bft) 0 min
30.08.2013 21:24 22,4 C 17,7 C 15,4 C 64 % 0 % 1014 hPa 0,0 l/m 0,0 km/h (0 Bft) 0 min
30.08.2013 21:27 22,4 C 17,6 C 15,2 C 64 % 0 % 1014 hPa 0,0 l/m 0,0 km/h (0 Bft) 0 min
30.08.2013 21:30 22,4 C 17,6 C 15,2 C 64 % 0 % 1014 hPa 0,0 l/m 0,0 km/h (0 Bft) 0 min
30.08.2013 21:33 22,4 C 17,5 C 15,2 C 65 % 0 % 1014 hPa 0,0 l/m 0,1 km/h (0 Bft) 0 min
30.08.2013 21:36 22,4 C 17,5 C 15,1 C 65 % 0 % 1014 hPa 0,0 l/m 0,0 km/h (0 Bft) 0 min
30.08.2013 21:39 22,4 C 17,5 C 15,0 C 65 % 0 % 1014 hPa 0,0 l/m 0,0 km/h (0 Bft) 0 min
30.08.2013 21:42 22,4 C 17,5 C 14,7 C 65 % 0 % 1014 hPa 0,0 l/m 0,0 km/h (0 Bft) 0 min
30.08.2013 21:45 22,4 C 17,4 C 14,8 C 65 % 0 % 1014 hPa 0,0 l/m 0,0 km/h (0 Bft) 0 min
30.08.2013 21:48 22,4 C 17,4 C 14,7 C 65 % 0 % 1014 hPa 0,0 l/m 0,0 km/h (0 Bft) 0 min
30.08.2013 21:51 22,4 C 17,3 C 14,6 C 65 % 0 % 1014 hPa 0,0 l/m 0,0 km/h (0 Bft) 0 min
30.08.2013 21:54 22,4 C 17,3 C 14,7 C 65 % 0 % 1014 hPa 0,0 l/m 0,0 km/h (0 Bft) 0 min
30.08.2013 21:57 22,4 C 17,3 C 14,8 C 65 % 0 % 1014 hPa 0,0 l/m 0,0 km/h (0 Bft) 0 min
30.08.2013 22:00 22,4 C 17,2 C 14,7 C 65 % 0 % 1014 hPa 0,0 l/m 0,0 km/h (0 Bft) 0 min
30.08.2013 22:03 22,4 C 17,2 C 14,7 C 66 % 0 % 1014 hPa 0,0 l/m 0,0 km/h (0 Bft) 0 min
30.08.2013 22:06 22,4 C 17,1 C 14,5 C 66 % 0 % 1014 hPa 0,0 l/m 0,0 km/h (0 Bft) 0 min
30.08.2013 22:09 22,4 C 17,1 C 14,4 C 66 % 0 % 1014 hPa 0,0 l/m 0,0 km/h (0 Bft) 0 min
30.08.2013 22:12 22,4 C 17,0 C 14,4 C 67 % 0 % 1014 hPa 0,0 l/m 0,0 km/h (0 Bft) 0 min
30.08.2013 22:15 22,4 C 17,0 C 14,5 C 67 % 0 % 1014 hPa 0,0 l/m 0,0 km/h (0 Bft) 0 min
30.08.2013 22:18 22,4 C 17,0 C 14,7 C 67 % 0 % 1014 hPa 0,0 l/m 0,0 km/h (0 Bft) 0 min
30.08.2013 22:21 22,4 C 16,9 C 14,3 C 67 % 0 % 1014 hPa 0,0 l/m 0,0 km/h (0 Bft) 0 min
30.08.2013 22:24 22,4 C 16,9 C 14,3 C 67 % 0 % 1014 hPa 0,0 l/m 0,0 km/h (0 Bft) 0 min
30.08.2013 22:27 22,4 C 16,8 C 14,4 C 68 % 0 % 1014 hPa 0,0 l/m 0,0 km/h (0 Bft) 0 min
30.08.2013 22:30 22,4 C 16,8 C 14,4 C 68 % 0 % 1014 hPa 0,0 l/m 0,0 km/h (0 Bft) 0 min
30.08.2013 22:33 22,4 C 16,8 C 14,4 C 68 % 0 % 1014 hPa 0,0 l/m 0,0 km/h (0 Bft) 0 min
30.08.2013 22:36 22,3 C 16,6 C 14,6 C 68 % 0 % 1014 hPa 0,0 l/m 0,0 km/h (0 Bft) 0 min
30.08.2013 22:39 22,4 C 16,5 C 14,6 C 69 % 0 % 1014 hPa 0,0 l/m 0,0 km/h (0 Bft) 0 min
30.08.2013 22:42 22,4 C 16,3 C 14,5 C 69 % 0 % 1014 hPa 0,0 l/m 0,0 km/h (0 Bft) 0 min
30.08.2013 22:45 22,4 C 16,2 C 14,4 C 70 % 0 % 1014 hPa 0,0 l/m 0,0 km/h (0 Bft) 0 min
30.08.2013 22:48 22,4 C 16,2 C 14,4 C 70 % 0 % 1014 hPa 0,0 l/m 0,0 km/h (0 Bft) 0 min
30.08.2013 22:51 22,4 C 16,2 C 14,4 C 71 % 0 % 1014 hPa 0,0 l/m 0,0 km/h (0 Bft) 0 min
30.08.2013 22:54 22,3 C 16,2 C 13,9 C 71 % 0 % 1014 hPa 0,0 l/m 0,0 km/h (0 Bft) 0 min
30.08.2013 22:57 22,3 C 16,2 C 13,6 C 71 % 0 % 1014 hPa 0,0 l/m 0,0 km/h (0 Bft) 0 min
30.08.2013 23:00 22,4 C 16,2 C 13,4 C 71 % 0 % 1014 hPa 0,0 l/m 0,0 km/h (0 Bft) 0 min
30.08.2013 23:03 22,3 C 16,2 C 13,6 C 71 % 0 % 1014 hPa 0,0 l/m 0,0 km/h (0 Bft) 0 min
30.08.2013 23:06 22,3 C 16,2 C 13,6 C 71 % 0 % 1014 hPa 0,0 l/m 0,0 km/h (0 Bft) 0 min
30.08.2013 23:09 22,3 C 16,1 C 13,5 C 71 % 0 % 1014 hPa 0,0 l/m 0,0 km/h (0 Bft) 0 min
30.08.2013 23:12 22,4 C 16,1 C 13,4 C 71 % 0 % 1014 hPa 0,0 l/m 0,0 km/h (0 Bft) 0 min
30.08.2013 23:15 22,4 C 16,1 C 13,4 C 71 % 0 % 1014 hPa 0,0 l/m 0,0 km/h (0 Bft) 0 min
30.08.2013 23:18 22,4 C 16,1 C 13,5 C 71 % 0 % 1014 hPa 0,0 l/m 0,0 km/h (0 Bft) 0 min
30.08.2013 23:21 22,4 C 16,1 C 13,4 C 71 % 0 % 1014 hPa 0,0 l/m 0,0 km/h (0 Bft) 0 min
30.08.2013 23:24 22,4 C 16,1 C 13,3 C 71 % 0 % 1014 hPa 0,0 l/m 0,0 km/h (0 Bft) 0 min
30.08.2013 23:27 22,4 C 16,1 C 13,4 C 72 % 0 % 1014 hPa 0,0 l/m 0,0 km/h (0 Bft) 0 min
30.08.2013 23:30 22,4 C 16,0 C 13,3 C 72 % 0 % 1014 hPa 0,0 l/m 0,0 km/h (0 Bft) 0 min
30.08.2013 23:33 22,4 C 16,0 C 13,6 C 72 % 0 % 1014 hPa 0,0 l/m 0,0 km/h (0 Bft) 0 min
30.08.2013 23:36 22,3 C 16,0 C 13,7 C 72 % 0 % 1014 hPa 0,0 l/m 0,0 km/h (0 Bft) 0 min
30.08.2013 23:39 22,3 C 15,9 C 13,8 C 72 % 0 % 1014 hPa 0,0 l/m 0,0 km/h (0 Bft) 0 min
30.08.2013 23:42 22,4 C 15,8 C 13,8 C 73 % 0 % 1014 hPa 0,0 l/m 0,0 km/h (0 Bft) 0 min
30.08.2013 23:45 22,3 C 15,7 C 13,5 C 74 % 0 % 1014 hPa 0,0 l/m 0,0 km/h (0 Bft) 0 min
30.08.2013 23:48 22,3 C 15,6 C 13,6 C 74 % 0 % 1014 hPa 0,0 l/m 0,0 km/h (0 Bft) 0 min
30.08.2013 23:51 22,3 C 15,6 C 13,9 C 74 % 0 % 1014 hPa 0,0 l/m 0,0 km/h (0 Bft) 0 min
30.08.2013 23:54 22,3 C 15,6 C 14,0 C 74 % 0 % 1014 hPa 0,0 l/m 0,0 km/h (0 Bft) 0 min
30.08.2013 23:57 22,4 C 15,6 C 13,8 C 74 % 0 % 1014 hPa 0,0 l/m 0,0 km/h (0 Bft) 0 min
_ Min-Zeit 10:24 08:48 06:18 16:03 - 16:27 - 00:00 -
Minimum _ 21,3 C 11,5 C 9,6 C 43 % - 1013 hPa - 0,0 km/h (0 Bft) -
_ Max-Zeit 12:15 15:42 14:24 09:06 12:21 00:00 00:00 15:42 10:48
Maximum _ 22,6 C 22,0 C 28,5 C 96 % 100 % 1016 hPa 0,0 l/m 11,2 km/h
SO (2 Bft)
3 min
Durchschnitt _ 22,4 C 16,4 C 16,5 C 74 % #8:54 h 1015 hPa #0,0 l/m 1,6 km/h (1 Bft) #8:54 h